Location: Borgo
(42.3939°N, 9.2791°E)
Time: 17:52:26
(UTC+00:00)

Cosmos 1602 Rocket - Pass Details

Date: 24 January 2021
Orbit: 604 x 632 km, 82.5° (Epoch: 03 March)

Event Time Altitude Azimuth Distance (km) Brightness Sun altitude
Rises 17:55:03 0° 188° (S) 2,850 7.2 -16.3°
Reaches altitude 10° 17:57:15 10° 189° (S) 1,954 6.4 -16.7°
Maximum altitude 18:01:35 84° 276° (W) 621 3.5 -17.5°
Drops below altitude 10° 18:05:59 10° 7° (N) 1,986 6.0 -18.3°
Sets 18:08:14 0° 8° (N) 2,900 6.8 -18.7°
